+ View the NASA Portal
+ Center for Near-Earth Object Studies
IMPORTANT:
The SSD Announcement email list is now available. Major changes are coming in the near future, including possible hostname and/or URL changes. To be notified of such changes, subscribe to this email list.
Please visit
this page
for more details.
Don't show this message again
JPL Small-Body Database Browser
Search:
[
help
]
344798 (2003 YY150)
Classification:
Main-belt Asteroid
SPK-ID:
2344798
[
Ephemeris
|
Orbit Diagram
|
Orbital Elements
|
Mission Design
|
Physical Parameters
|
Discovery Circumstances
]
[ show orbit diagram ]
Orbital Elements at Epoch 2458600.5 (2019-Apr-27.0) TDB
Reference:
JPL 12
(heliocentric ecliptic J2000)
Element
Value
Uncertainty (1-sigma)
Units
e
.2313976388699729
5.8678e-08
a
2.772698498180862
2.7666e-08
au
q
2.131102612403491
1.6779e-07
au
i
10.25940139617568
8.0744e-06
deg
node
34.21945713208864
4.5697e-05
deg
peri
12.8131388895558
5.019e-05
deg
M
159.0917850634081
2.3674e-05
deg
t
p
2457855.257435446616
(2017-Apr-11.75743545)
0.00010496
TDB
period
1686.36817502732
4.62
2.524e-05
6.91e-08
d
yr
n
.2134765144000466
3.1951e-09
deg/d
Q
3.414294383958233
3.4068e-08
au
Orbit Determination Parameters
# obs. used (total)
225
data-arc span
5628 days (15.41 yr)
first obs. used
2003-12-29
last obs. used
2019-05-27
planetary ephem.
DE431
SB-pert. ephem.
SB431-N16
condition code
0
norm. resid. RMS
.56229
source
ORB
producer
Otto Matic
solution date
2019-Sep-24 06:31:12
Additional Information
Earth MOID
= 1.14128 au
Jupiter MOID
= 2.01084 au
T_jup
= 3.274
[ show covariance matrix ]
[
Ephemeris
|
Orbit Diagram
|
Orbital Elements
|
Mission Design
|
Physical Parameters
|
Discovery Circumstances
]
Physical Parameter Table
Parameter
Symbol
Value
Units
Sigma
Reference
Notes
absolute magnitude
H
16.2
n/a
MPO437461
344798 (2003 YY150)
Discovered 2003-Dec-29 by CSS at Catalina
Reference:
20121128/Numbers.arc
Last Updated:
2012-12-03
Alternate Designations
2003 YY150
= 2007 TL185
[
Ephemeris
|
Orbit Diagram
|
Orbital Elements
|
Mission Design
|
Physical Parameters
|
Discovery Circumstances
]
2019-Dec-09 00:08 UT
(server date/time)
Site Manager:
Ryan S. Park
Webmaster
:
Alan B. Chamberlin